Regional Weather Roundup
Issued by NWS Kansas City/Pleasant Hill, MO

Current Version | Previous Version | Graphics & Text | Print | Product List | Glossary On
Versions: 1 2 3 4 5 6 7 8 9 10 11 12 13 14 15 16 17 18 19 20 21 22 23 24 25 26 27 28 29 30 31 32 33 34 35 36 37 38 39 40 41 42 43 44 45 46 47 48 49 50
000
ASUS43 KEAX 032310
RWREAX

WEATHER ROUNDUP FOR EASTERN KANSAS AND NORTHWEST MISSOURI
NATIONAL WEATHER SERVICE KANSAS CITY/PLEASANT HILL MO
500 PM CST WED MAR 03 2021

KSZ040-057-103>105-MOZ028-029-037-043-040000-
...KANSAS CITY METROPOLITAN AREA...

CITY           SKY/WX    TMP DP  RH WIND       PRES   REMARKS
K.C. INTL      MOSUNNY   70  28  21 S5        30.00S
K.C. DOWNTOWN  SUNNY     70  23  17 S6        29.98S
LEES SUMMIT    SUNNY     69  22  16 SW10      30.00S
OLATHE - IXD   SUNNY     69  23  17 SW9       30.01R
OLATHE - OJC   SUNNY     68  23  18 SW9       30.00S
LAWRENCE       SUNNY     71  23  16 SW9       29.99S

$$

MOZ001>008-011>017-020>025-030>033-038>040-044>046-053-054-040000-
...NORTHERN AND CENTRAL MISSOURI...

CITY           SKY/WX    TMP DP  RH WIND       PRES   REMARKS
ST. JOSEPH     SUNNY     69  26  20 CALM      30.00S
MOSBY          SUNNY     70  23  17 CALM      30.00S
HARRISONVILLE  SUNNY     72  25  17 SW8       30.03S
WHITEMAN AFB   SUNNY     68  31  25 S7        29.97S
CLINTON        SUNNY     68  30  24 S10       30.01S
SEDALIA        SUNNY     68  28  22 SW12      30.01F
CHILLICOTHE      N/A     67  28  23 NE3       30.02S
MOBERLY        SUNNY     66  27  22 CALM      30.03R
KIRKSVILLE     SUNNY     65  32  29 E5        30.04R

$$

MOZ041-047>049-056>058-063>065-088>090-097-040000-
...EASTERN AND SOUTHERN MISSOURI...

CITY           SKY/WX    TMP DP  RH WIND       PRES   REMARKS
ST. LOUIS INTL CLEAR     68  29  23 N9        30.02S
SPIRIT OF STL  SUNNY     68  29  23 SW8       30.01R
COLUMBIA       SUNNY     68  25  19 SW8       30.02R
JEFFERSON CITY SUNNY     70  24  17 SW8       30.02S
MEXICO         SUNNY     64  32  29 CALM      30.02S
HANNIBAL       SUNNY     64  21  19 N5        30.04R
ROLLA          SUNNY     67  27  22 W8        30.03S
LEBANON        SUNNY     68  21  17 W7        30.05S
OSAGE BEACH    SUNNY     69  27  20 CALM      30.04R
SPRINGFIELD    SUNNY     65  29  25 SW9       30.03F
BRANSON        SUNNY     66  25  20 CALM      30.07S
JOPLIN         SUNNY     67  23  19 SW14      30.05S
WEST PLAINS    SUNNY     66  27  23 W7        30.06S
SIKESTON       CLEAR     63  39  42 SW10      30.07S

$$

IAZ060-094-KSZ022-034>040-054-083-096-NEZ052-066-093-040000-
...KANSAS...SOUTHEAST NEBRASKA AND IOWA...

CITY           SKY/WX    TMP DP  RH WIND       PRES   REMARKS
TOPEKA         SUNNY     72  21  14 SW8       29.97F
MANHATTAN      SUNNY     74  21  13 SW7       29.96F
EMPORIA        SUNNY     71  18  13 SW9       29.99S
OTTAWA         FAIR      73  21  14 SW10      29.99S
CHANUTE        SUNNY     71  23  16 SW13      30.02S
SALINA         SUNNY     71  16  12 S10       29.97S
WICHITA        MOSUNNY   68  26  20 SW13      29.99S
OMAHA          MOSUNNY   61  36  39 E8        30.02R
LINCOLN        MOSUNNY   67  30  25 E8        30.01R
FALLS CITY     SUNNY     68  30  24 NE5       29.99S
LAMONI         SUNNY     64  30  27 E5        30.02R
DES MOINES     MOSUNNY   56  38  50 E8        30.06R

$$





USA.gov is the U.S. government's official web portal to all federal, state and local government web resources and services.